Syracuse, NY

1:26 AM EST on December 12, 2019 (GMT -0500)
Syracuse Hancock International

Weather History for KSYR - October, 2019

Change the Weather History Date:

Monday, October 14, 2019

  Actual Average Record
Temperature  
Mean Temperature 52 °F 51 °F  
Max Temperature 59 °F 61 °F 85 °F (1954)
Min Temperature 45 °F 42 °F 25 °F (1993)
Degree Days  
Heating Degree Days 12 14  
Month to date heating degree days 166  
Since 1 July heating degree days 333  
Cooling Degree Days 0 0  
Month to date cooling degree days 0  
Year to date cooling degree days 565  
Growing Degree Days 2 (Base 50)    
Moisture  
Dew Point 40 °F    
Average Humidity 63    
Maximum Humidity 74    
Minimum Humidity 51    
Precipitation  
Precipitation 0.00 in 0.11 in 1.38 in (1995)
Month to date precipitation 1.58  
Year to date precipitation 29.86  
Snow  
Snow - 0.00 in T in (2006)
Month to date snowfall 0.0  
Since 1 July snowfall 0.0  
Since 1 September snowfall 0.0  
Snow Depth -    
Sea Level Pressure  
Sea Level Pressure 29.96 in    
Wind  
Wind Speed 8 mph ()    
Max Wind Speed 14 mph    
Max Gust Speed -    
Visibility 10.0 miles    
Events Rain    
T = Trace of Precipitation, MM = Missing Value Source: Averaged Metar Reports

Daily Weather History Graph

Daily Weather History Graph

Search for Another Location

Airport or City:

Astronomy

Oct. 14, 2019 Rise Set
Actual Time 7:16 AM EDT 6:23 PM EDT
Civil Twilight 6:47 AM EDT 6:52 PM EDT
Nautical Twilight 6:15 AM EDT 7:25 PM EDT
Astronomical Twilight 5:42 AM EDT 7:58 PM EDT
Moon 7:12 PM EDT (10/14) 7:45 AM EDT (10/14)
Length of Visible Light 12h 04m
Length of Day
11h 07m
Waxing Gibbous, 99% of the Moon is Illuminated
Oct 14
Waxing Gibbous
Oct 21
Last Quarter
Oct 27
New
Nov 4
First Quarter
Nov 12
Full

Hourly Weather History & Observations

Time (EDT) Temp. Windchill Dew Point Humidity Pressure Visibility Wind Dir Wind Speed Gust Speed Precip Events Conditions
12:54 AM 55.0 °F - 39.9 °F 57% 29.90 in 10.0 mi South 10.4 mph - N/A   Partly Cloudy
1:54 AM 53.1 °F - 41.0 °F 64% 29.89 in 10.0 mi South 9.2 mph - N/A   Partly Cloudy
2:54 AM 52.0 °F - 41.0 °F 66% 29.88 in 10.0 mi SSE 4.6 mph - N/A   Scattered Clouds
3:54 AM 52.0 °F - 42.1 °F 69% 29.87 in 10.0 mi SE 3.5 mph - N/A   Overcast
4:54 AM 51.1 °F - 42.1 °F 71% 29.87 in 10.0 mi South 6.9 mph - N/A   Overcast
5:54 AM 53.1 °F - 43.0 °F 69% 29.86 in 10.0 mi South 6.9 mph - N/A   Overcast
6:54 AM 54.0 °F - 42.1 °F 64% 29.88 in 10.0 mi South 11.5 mph - N/A   Overcast
7:54 AM 53.1 °F - 42.1 °F 66% 29.89 in 10.0 mi SSW 6.9 mph - N/A   Mostly Cloudy
8:54 AM 57.0 °F - 42.1 °F 57% 29.90 in 10.0 mi SSW 5.8 mph - N/A   Mostly Cloudy
9:54 AM 59.0 °F - 41.0 °F 51% 29.93 in 10.0 mi WSW 13.8 mph - N/A   Mostly Cloudy
10:54 AM 57.9 °F - 41.0 °F 53% 29.94 in 10.0 mi West 13.8 mph - N/A   Mostly Cloudy
11:54 AM 57.0 °F - 43.0 °F 59% 29.94 in 10.0 mi West 10.4 mph - N/A   Mostly Cloudy
12:54 PM 55.0 °F - 39.0 °F 55% 29.96 in 10.0 mi West 12.7 mph - N/A   Overcast
1:54 PM 57.0 °F - 39.9 °F 53% 29.96 in 10.0 mi WNW 11.5 mph - N/A   Overcast
2:54 PM 53.1 °F - 39.9 °F 61% 29.97 in 10.0 mi WNW 13.8 mph - N/A   Overcast
3:54 PM 51.1 °F - 39.0 °F 63% 29.99 in 10.0 mi West 12.7 mph - 0.00 in Rain Light Rain
4:54 PM 50.0 °F - 39.0 °F 66% 30.01 in 10.0 mi West 9.2 mph - 0.00 in   Overcast
5:54 PM 50.0 °F - 39.0 °F 66% 30.03 in 10.0 mi West 9.2 mph - N/A   Overcast
6:54 PM 48.9 °F - 37.9 °F 66% 30.04 in 10.0 mi SW 5.8 mph - N/A   Mostly Cloudy
7:54 PM 50.0 °F - 37.9 °F 63% 30.06 in 10.0 mi WSW 8.1 mph - N/A   Overcast
8:54 PM 48.9 °F - 37.0 °F 64% 30.07 in 10.0 mi WSW 5.8 mph - N/A   Overcast
9:54 PM 48.0 °F - 37.9 °F 68% 30.08 in 10.0 mi SW 5.8 mph - N/A   Overcast
10:54 PM 46.9 °F - 37.0 °F 68% 30.08 in 10.0 mi SW 4.6 mph - N/A   Mostly Cloudy
11:54 PM 45.0 °F 40.6 °F 37.0 °F 74% 30.09 in 10.0 mi SSW 8.1 mph - N/A   Scattered Clouds